Epoch = 2016 Feb. 22.0 TT T = 2016 Feb. 20.43259 TT Peri. = 352.54407 e = 0.1494644 Node = 12.04213 2000.0 q = 2.2923678 AU Incl. = 3.70988 a = 2.6952051 AU n = 0.22274930 P = 4.42 years
H = 19.0 G = 0.15